Flag for Barbados Weather past 2 weeks in Bridgetown, Barbados

Now
81 °F

Partly sunny.


Feels Like: 85 °F
Forecast: N/A
Wind: 21 mph from East

Location: Grantley Adams

Current Time: May 30, 2015 at 6:59:20 PM

Latest Report: May 30, 2015 at 6:00 PM


Visibility: N/A

Pressure: 29.92 "Hg

Humidity: 79%

Dew point: 73 °F

Location of BridgetownLocation

Historic Weather in Bridgetown — Graph

°F

Bridgetown temperature yesterday

Maximum temperature yesterday: 84 °F (at 9:00 AM)
Minimum temperature yesterday: 79 °F (at 5:00 AM)
Average temperature yesterday: 82 °F

Past Weeks' High & Low Weather Summary

 TemperatureHumidityPressure
High88 °F (May 17, 12:00 PM)94% (May 16, 9:00 PM)30.07 "Hg (May 16, 9:00 PM)
Low75 °F (May 16, 9:00 PM)59% (May 24, 11:00 AM)29.89 "Hg (May 28, 3:00 AM)
Average82 °F76%29.98 "Hg
* Reported May 15 6:00 PM — May 30 6:00 PM, Bridgetown, Weather by CustomWeather, © 2015

Note: Actual official high and low records may vary slightly from our data, if they occured in-between our weather recording intervals... More about our weather records

Advertising

Bridgetown weather history for previous 24 hours

 ConditionsComfort  
Time TempWeatherWind HumidityBarometerVisibility
6:00 PM
Sat, May 30
81 °FPartly sunny.21 mph79%29.92 "HgN/A
5:00 PM82 °FBroken clouds.21 mph74%29.92 "HgN/A
4:00 PM84 °FPartly sunny.20 mph74%29.92 "HgN/A
3:00 PM86 °FBroken clouds.20 mph70%29.92 "HgN/A
2:00 PM84 °FPartly sunny.21 mph70%29.95 "HgN/A
1:00 PM84 °FPartly sunny.21 mph70%29.95 "HgN/A
12:00 PM86 °FBroken clouds.23 mph66%29.98 "HgN/A
11:00 AM86 °FBroken clouds.24 mph70%29.98 "HgN/A
10:00 AM86 °FPartly sunny.23 mph70%29.98 "HgN/A
9:00 AM84 °FBroken clouds.22 mph74%29.98 "HgN/A
8:00 AM84 °FPartly sunny.22 mph70%29.95 "HgN/A
7:00 AM82 °FPartly sunny.17 mph79%29.95 "HgN/A
6:00 AM81 °FBroken clouds.17 mph84%29.92 "HgN/A
5:00 AM81 °FPassing clouds.20 mph84%29.92 "HgN/A
4:00 AM81 °FPartly cloudy.21 mph84%29.92 "HgN/A
3:00 AM81 °FPassing clouds.20 mph84%29.89 "HgN/A
2:00 AM81 °FPassing clouds.18 mph84%29.92 "HgN/A
1:00 AM81 °FPartly cloudy.18 mph84%29.92 "HgN/A
6:00 PM
Fri, May 29
81 °FPartly sunny.23 mph79%29.92 "HgN/A
Weather by CustomWeather, © 2015

See weather overviewHow to use our weather pages